Flag for Switzerland Weather past 2 weeks in Allschwil, Basel-Land, Switzerland

Now
50 °F

Scattered clouds.


Feels Like: 49 °F
Forecast: 49 / 71 °F
Wind: 3 mph from South

Location: Bale-Mulhouse

Current Time: May 28, 2015 at 10:49:22 AM

Latest Report: May 28, 2015 at 8:00 AM


Visibility: 19 mi

Pressure: 30.14 "Hg

Humidity: 78%

Dew point: 44 °F

Location of AllschwilLocation

Historic Weather in Allschwil — Graph

°F

Allschwil temperature yesterday

Maximum temperature yesterday: 65 °F (at 6:00 PM)
Minimum temperature yesterday: 42 °F (at 4:00 AM)
Average temperature yesterday: 55 °F

Past Weeks' High & Low Weather Summary

 TemperatureHumidityPressure
High80 °F (May 13, 5:00 PM)98% (May 16, 6:00 AM)30.35 "Hg (May 16, 6:00 AM)
Low39 °F (May 22, 5:00 AM)36% (May 22, 4:00 PM)29.75 "Hg (May 18, 8:00 PM)
Average57 °F71%30.07 "Hg
* Reported May 13 8:00 AM — May 28 8:00 AM, Allschwil, Weather by CustomWeather, © 2015

Note: Actual official high and low records may vary slightly from our data, if they occured in-between our weather recording intervals... More about our weather records

Advertising

Allschwil weather history for previous 24 hours

 ConditionsComfort  
Time TempWeatherWind HumidityBarometerVisibility
8:00 AM
Thu, May 28
50 °FScattered clouds.3 mph78%30.14 "Hg19 mi
2:00 AM45 °FCool.1 mph85%30.17 "Hg14 mi
1:00 AM47 °FCool.8 mph83%30.18 "Hg15 mi
12:00 AM47 °FPassing clouds.5 mph82%30.18 "Hg19 mi
10:00 PM
Wed, May 27
52 °FPassing clouds.3 mph69%30.18 "Hg19 mi
9:00 PM59 °FScattered clouds.3 mph49%30.16 "Hg19 mi
8:00 PM62 °FScattered clouds.6 mph44%30.16 "Hg19 mi
7:00 PM64 °FPassing clouds.3 mph41%30.16 "Hg19 mi
6:00 PM65 °FPassing clouds.3 mph40%30.17 "Hg19 mi
5:00 PM65 °FPassing clouds.5 mph37%30.18 "Hg19 mi
4:00 PM64 °FPassing clouds.6 mph39%30.19 "Hg16 mi
3:00 PM62 °FPassing clouds.5 mph43%30.20 "Hg16 mi
2:00 PM62 °FPassing clouds.8 mph44%30.22 "Hg16 mi
1:00 PM60 °FScattered clouds.7 mph41%30.24 "Hg16 mi
12:00 PM59 °FScattered clouds.5 mph47%30.25 "Hg16 mi
11:00 AM57 °FScattered clouds.5 mph58%30.25 "Hg16 mi
10:00 AM54 °FPartly sunny.2 mph64%30.27 "Hg16 mi
Weather by CustomWeather, © 2015

See weather overviewHow to use our weather pages